Starlink 1169

operational
NORAD ID: 45061 Int'l Des: 2020-006 Owner: SPXS Country: US Constellation: starlink
LEOCIRCULARSTARLINK_TYPE

Starlink 1169について

説明を読み込み中...

リアルタイム位置

3D地球を読み込み中...

次回通過

高度履歴

Altitude vs Time

uPlot chart will show altitude changes over time

軌道要素

1 45061U 20006T 25350.56672744 .00005086 00000-0 35994-3 0 9992
2 45061 53.0560 299.7698 0002355 82.6934 277.4323 15.06418247323930
Epoch: Dec 16, 2025 • Age: 17 hours

現在のステータス

高度 550.2 km
速度 7.59 km/s
衛星直下点 -10.67°S, 96.37°E
打ち上げ日 Jan 29, 2020
運用期間 5.8 years
タイプ internet

技術仕様

分類 Payload
質量 260.00 kg
乾燥質量 248.00 kg
総質量 260.00 kg
長さ 0.20 m
直径 2.80 m
スパン 9.00 m
形状 Box + pan
製造者 SPXS
バスタイプ Starlink
フェーズステータス In Orbit
所有者/国 SPXS/US

大規模コンステレーション

Loading constellations...